Tracking 29892 objects as of 21-Nov-2024
HD Live streaming from Space Station
objects crossing your sky now

STARLINK-3733

Track STARLINK-3733 now!
10-day predictions
STARLINK-3733 is classified as:


NORAD ID: 52137
Int'l Code: 2022-029BB
Perigee: 546.0 km
Apogee: 547.7 km
Inclination: 53.2 °
Period: 95.4 minutes
Semi major axis: 6917 km
RCS: Unknown
Launch date: March 19, 2022
Source: United States (US)
Launch site: AIR FORCE EASTERN TEST RANGE (AFETR)
Your satellite tracking list
Your tracking list is empty




NASA's NSSDC Master Catalog

Two Line Element Set (TLE):
1 52137U 22029BB  24325.57284781  .00002193  00000-0  15578-3 0  9995
2 52137  53.2159  37.5123 0001241  95.5559 264.5574 15.08849355149366
Source of the keplerian elements: AFSPC